Time,TemperatureF,DewpointF,PressureIn,WindDirection,WindDirectionDegrees,WindSpeedMPH,WindSpeedGustMPH,Humidity,HourlyPrecipIn,Conditions,Clouds,dailyrainin,SoftwareType,DateUTC
2013-05-15 00:02:00,74.0,-99.9,30.09,SSE,150,20.0,24.0,-999,-99.99,,,-99.99,,2013-05-15 05:02:00,
2013-05-15 00:12:00,74.0,-99.9,30.09,SSE,153,21.0,24.0,-999,-99.99,,,-99.99,,2013-05-15 05:12:00,
2013-05-15 00:22:00,74.0,-99.9,30.09,SE,146,20.0,24.0,-999,-99.99,,,-99.99,,2013-05-15 05:22:00,
2013-05-15 00:32:00,74.0,-99.9,30.09,SSE,148,23.0,26.0,-999,-99.99,,,-99.99,,2013-05-15 05:32:00,
2013-05-15 00:42:00,74.0,-99.9,30.09,SE,145,21.0,26.0,-999,-99.99,,,-99.99,,2013-05-15 05:42:00,
2013-05-15 00:52:00,74.0,-99.9,30.08,SE,145,23.0,25.0,-999,-99.99,,,-99.99,,2013-05-15 05:52:00,
2013-05-15 01:02:00,74.0,-99.9,30.07,SE,140,21.0,24.0,-999,-99.99,,,-99.99,,2013-05-15 06:02:00,
2013-05-15 01:12:00,74.0,-99.9,30.06,SE,141,21.0,25.0,-999,-99.99,,,-99.99,,2013-05-15 06:12:00,
2013-05-15 01:22:00,74.0,-99.9,30.06,SE,141,22.0,25.0,-999,-99.99,,,-99.99,,2013-05-15 06:22:00,
2013-05-15 01:32:00,74.0,-99.9,30.05,SE,134,23.0,25.0,-999,-99.99,,,-99.99,,2013-05-15 06:32:00,
2013-05-15 01:42:00,74.0,-99.9,30.04,SE,132,24.0,27.0,-999,-99.99,,,-99.99,,2013-05-15 06:42:00,
2013-05-15 01:52:00,74.0,-99.9,30.03,SE,132,23.0,28.0,-999,-99.99,,,-99.99,,2013-05-15 06:52:00,
2013-05-15 02:01:00,74.0,-99.9,30.03,SE,132,23.0,28.0,-999,-99.99,,,-99.99,,2013-05-15 07:01:00,
2013-05-15 02:11:00,74.0,-99.9,30.02,SE,131,22.0,27.0,-999,-99.99,,,-99.99,,2013-05-15 07:11:00,
2013-05-15 02:22:00,74.0,-99.9,30.01,SE,133,22.0,27.0,-999,-99.99,,,-99.99,,2013-05-15 07:22:00,
2013-05-15 02:32:00,74.0,-99.9,30.01,SE,142,21.0,25.0,-999,-99.99,,,-99.99,,2013-05-15 07:32:00,
2013-05-15 02:42:00,74.0,-99.9,30.02,SE,145,24.0,26.0,-999,-99.99,,,-99.99,,2013-05-15 07:42:00,
2013-05-15 02:52:00,74.0,-99.9,30.01,SE,143,25.0,27.0,-999,-99.99,,,-99.99,,2013-05-15 07:52:00,
2013-05-15 03:02:00,74.0,-99.9,30.01,SE,142,24.0,27.0,-999,-99.99,,,-99.99,,2013-05-15 08:02:00,
2013-05-15 03:12:00,74.0,-99.9,30.00,SE,137,24.0,26.0,-999,-99.99,,,-99.99,,2013-05-15 08:12:00,
2013-05-15 03:21:00,74.0,-99.9,30.00,SE,138,22.0,25.0,-999,-99.99,,,-99.99,,2013-05-15 08:21:00,
2013-05-15 03:32:00,74.0,-99.9,30.01,SE,141,23.0,26.0,-999,-99.99,,,-99.99,,2013-05-15 08:32:00,
2013-05-15 03:42:00,74.0,-99.9,30.00,SE,139,24.0,28.0,-999,-99.99,,,-99.99,,2013-05-15 08:42:00,
2013-05-15 03:53:00,74.0,-99.9,30.00,SE,141,26.0,30.0,-999,-99.99,,,-99.99,,2013-05-15 08:53:00,
2013-05-15 04:01:00,74.0,-99.9,29.99,SE,144,24.0,28.0,-999,-99.99,,,-99.99,,2013-05-15 09:01:00,
2013-05-15 04:12:00,74.0,-99.9,29.99,SE,145,25.0,28.0,-999,-99.99,,,-99.99,,2013-05-15 09:12:00,
2013-05-15 04:22:00,74.0,-99.9,30.00,SSE,148,26.0,28.0,-999,-99.99,,,-99.99,,2013-05-15 09:22:00,
2013-05-15 04:33:00,74.0,-99.9,30.00,SSE,152,23.0,29.0,-999,-99.99,,,-99.99,,2013-05-15 09:33:00,
2013-05-15 04:42:00,74.0,-99.9,30.01,SSE,155,22.0,28.0,-999,-99.99,,,-99.99,,2013-05-15 09:42:00,
2013-05-15 04:53:00,74.0,-99.9,30.01,SSE,155,21.0,24.0,-999,-99.99,,,-99.99,,2013-05-15 09:53:00,
2013-05-15 05:02:00,75.0,-99.9,30.02,SSE,157,18.0,21.0,-999,-99.99,,,-99.99,,2013-05-15 10:02:00,
2013-05-15 05:13:00,74.0,-99.9,30.02,SSE,160,17.0,20.0,-999,-99.99,,,-99.99,,2013-05-15 10:13:00,
2013-05-15 05:23:00,74.0,-99.9,30.02,SSE,160,15.0,18.0,-999,-99.99,,,-99.99,,2013-05-15 10:23:00,
2013-05-15 05:32:00,74.0,-99.9,30.03,SSE,162,17.0,19.0,-999,-99.99,,,-99.99,,2013-05-15 10:32:00,
2013-05-15 05:43:00,75.0,-99.9,30.03,SSE,161,17.0,19.0,-999,-99.99,,,-99.99,,2013-05-15 10:43:00,
2013-05-15 05:53:00,74.0,-99.9,30.03,SSE,159,16.0,18.0,-999,-99.99,,,-99.99,,2013-05-15 10:53:00,
2013-05-15 06:19:00,75.0,-99.9,30.03,SSE,156,19.0,21.0,-999,-99.99,,,-99.99,,2013-05-15 11:19:00,
2013-05-15 06:29:00,74.0,-99.9,30.03,SSE,158,17.0,21.0,-999,-99.99,,,-99.99,,2013-05-15 11:29:00,
2013-05-15 06:40:00,74.0,-99.9,30.03,SSE,160,18.0,22.0,-999,-99.99,,,-99.99,,2013-05-15 11:40:00,
2013-05-15 06:50:00,74.0,-99.9,30.03,SSE,168,19.0,21.0,-999,-99.99,,,-99.99,,2013-05-15 11:50:00,
2013-05-15 07:11:00,74.0,-99.9,30.03,SSE,151,19.0,22.0,-999,-99.99,,,-99.99,,2013-05-15 12:11:00,
2013-05-15 07:17:00,74.0,-99.9,30.03,SSE,147,21.0,23.0,-999,-99.99,,,-99.99,,2013-05-15 12:17:00,
2013-05-15 07:30:00,74.0,-99.9,30.03,SSE,148,22.0,26.0,-999,-99.99,,,-99.99,,2013-05-15 12:30:00,
2013-05-15 07:38:00,74.0,-99.9,30.01,SE,142,26.0,28.0,-999,-99.99,,,-99.99,,2013-05-15 12:38:00,
2013-05-15 07:58:00,74.0,-99.9,30.00,SE,135,25.0,28.0,-999,-99.99,,,-99.99,,2013-05-15 12:58:00,
2013-05-15 08:12:00,74.0,-99.9,29.99,SE,129,26.0,30.0,-999,-99.99,,,-99.99,,2013-05-15 13:12:00,
2013-05-15 08:19:00,74.0,-99.9,29.99,SE,128,25.0,30.0,-999,-99.99,,,-99.99,,2013-05-15 13:19:00,
2013-05-15 08:28:00,74.0,-99.9,30.00,SE,127,23.0,28.0,-999,-99.99,,,-99.99,,2013-05-15 13:28:00,
2013-05-15 08:37:00,74.0,-99.9,29.98,SE,128,25.0,28.0,-999,-99.99,,,-99.99,,2013-05-15 13:37:00,
2013-05-15 08:48:00,74.0,-99.9,29.99,SE,126,23.0,28.0,-999,-99.99,,,-99.99,,2013-05-15 13:48:00,
2013-05-15 09:00:00,74.0,-99.9,29.99,SE,128,24.0,27.0,-999,-99.99,,,-99.99,,2013-05-15 14:00:00,
2013-05-15 09:14:00,74.0,-99.9,29.99,SE,130,25.0,28.0,-999,-99.99,,,-99.99,,2013-05-15 14:14:00,
2013-05-15 09:28:00,74.0,-99.9,30.00,SE,132,23.0,28.0,-999,-99.99,,,-99.99,,2013-05-15 14:28:00,
2013-05-15 09:39:00,74.0,-99.9,30.00,SE,135,26.0,29.0,-999,-99.99,,,-99.99,,2013-05-15 14:39:00,
2013-05-15 09:52:00,74.0,-99.9,30.00,SE,135,25.0,30.0,-999,-99.99,,,-99.99,,2013-05-15 14:52:00,
2013-05-15 10:10:00,74.0,-99.9,30.01,SE,133,23.0,26.0,-999,-99.99,,,-99.99,,2013-05-15 15:10:00,
2013-05-15 10:16:00,74.0,-99.9,30.01,SE,134,20.0,25.0,-999,-99.99,,,-99.99,,2013-05-15 15:16:00,
2013-05-15 10:29:00,74.0,-99.9,30.02,SE,138,22.0,25.0,-999,-99.99,,,-99.99,,2013-05-15 15:29:00,
2013-05-15 10:50:00,74.0,-99.9,30.02,SE,137,20.0,23.0,-999,-99.99,,,-99.99,,2013-05-15 15:50:00,
2013-05-15 11:02:00,74.0,-99.9,30.02,SE,141,21.0,23.0,-999,-99.99,,,-99.99,,2013-05-15 16:02:00,
2013-05-15 11:10:00,75.0,-99.9,30.02,SE,142,20.0,23.0,-999,-99.99,,,-99.99,,2013-05-15 16:10:00,
2013-05-15 11:24:00,74.0,-99.9,30.03,SE,141,20.0,22.0,-999,-99.99,,,-99.99,,2013-05-15 16:24:00,
2013-05-15 11:40:00,75.0,-99.9,30.02,SE,141,19.0,22.0,-999,-99.99,,,-99.99,,2013-05-15 16:40:00,
2013-05-15 11:52:00,75.0,-99.9,30.02,SE,142,20.0,24.0,-999,-99.99,,,-99.99,,2013-05-15 16:52:00,
2013-05-15 12:13:00,75.0,-99.9,30.03,SSE,147,19.0,22.0,-999,-99.99,,,-99.99,,2013-05-15 17:13:00,
2013-05-15 12:21:00,75.0,-99.9,30.03,SSE,147,20.0,23.0,-999,-99.99,,,-99.99,,2013-05-15 17:21:00,
2013-05-15 12:29:00,75.0,-99.9,30.02,SSE,149,22.0,25.0,-999,-99.99,,,-99.99,,2013-05-15 17:29:00,
2013-05-15 12:49:00,74.0,-99.9,30.02,SE,143,21.0,25.0,-999,-99.99,,,-99.99,,2013-05-15 17:49:00,
2013-05-15 12:59:00,74.0,-99.9,30.02,SE,141,18.0,22.0,-999,-99.99,,,-99.99,,2013-05-15 17:59:00,
2013-05-15 13:17:00,74.0,-99.9,30.01,SE,138,18.0,21.0,-999,-99.99,,,-99.99,,2013-05-15 18:17:00,
2013-05-15 13:28:00,75.0,-99.9,30.01,SE,135,18.0,21.0,-999,-99.99,,,-99.99,,2013-05-15 18:28:00,
2013-05-15 13:50:00,74.0,-99.9,30.01,SE,141,20.0,23.0,-999,-99.99,,,-99.99,,2013-05-15 18:50:00,
2013-05-15 13:59:00,75.0,-99.9,30.01,SE,143,17.0,22.0,-999,-99.99,,,-99.99,,2013-05-15 18:59:00,
2013-05-15 14:09:00,75.0,-99.9,30.00,SE,140,17.0,19.0,-999,-99.99,,,-99.99,,2013-05-15 19:09:00,
2013-05-15 14:16:00,75.0,-99.9,30.00,SE,141,19.0,21.0,-999,-99.99,,,-99.99,,2013-05-15 19:16:00,
2013-05-15 14:31:00,75.0,-99.9,30.00,SE,145,19.0,21.0,-999,-99.99,,,-99.99,,2013-05-15 19:31:00,
2013-05-15 14:50:00,75.0,-99.9,29.99,SE,142,19.0,22.0,-999,-99.99,,,-99.99,,2013-05-15 19:50:00,
2013-05-15 14:59:00,75.0,-99.9,29.99,SE,140,19.0,23.0,-999,-99.99,,,-99.99,,2013-05-15 19:59:00,
2013-05-15 15:10:00,75.0,-99.9,29.99,SE,141,19.0,21.0,-999,-99.99,,,-99.99,,2013-05-15 20:10:00,
2013-05-15 15:21:00,75.0,-99.9,29.98,SE,143,20.0,23.0,-999,-99.99,,,-99.99,,2013-05-15 20:21:00,
2013-05-15 15:31:00,75.0,-99.9,29.97,SE,138,21.0,24.0,-999,-99.99,,,-99.99,,2013-05-15 20:31:00,
2013-05-15 15:48:00,75.0,-99.9,29.97,SE,136,20.0,23.0,-999,-99.99,,,-99.99,,2013-05-15 20:48:00,
2013-05-15 16:00:00,75.0,-99.9,29.96,SE,132,23.0,26.0,-999,-99.99,,,-99.99,,2013-05-15 21:00:00,
2013-05-15 16:09:00,75.0,-99.9,29.94,SE,132,22.0,26.0,-999,-99.99,,,-99.99,,2013-05-15 21:09:00,
2013-05-15 16:21:00,75.0,-99.9,29.94,SE,133,21.0,26.0,-999,-99.99,,,-99.99,,2013-05-15 21:21:00,
2013-05-15 16:42:00,75.0,-99.9,29.93,SE,136,23.0,25.0,-999,-99.99,,,-99.99,,2013-05-15 21:42:00,
2013-05-15 16:54:00,75.0,-99.9,29.92,SE,134,23.0,26.0,-999,-99.99,,,-99.99,,2013-05-15 21:54:00,
2013-05-15 17:01:00,75.0,-99.9,29.91,SE,135,26.0,28.0,-999,-99.99,,,-99.99,,2013-05-15 22:01:00,
2013-05-15 17:12:00,75.0,-99.9,29.91,SE,135,24.0,28.0,-999,-99.99,,,-99.99,,2013-05-15 22:12:00,
2013-05-15 17:20:00,75.0,-99.9,29.91,SE,138,25.0,29.0,-999,-99.99,,,-99.99,,2013-05-15 22:20:00,
2013-05-15 17:31:00,75.0,-99.9,29.90,SE,135,24.0,27.0,-999,-99.99,,,-99.99,,2013-05-15 22:31:00,
2013-05-15 17:43:00,75.0,-99.9,29.89,SE,134,26.0,30.0,-999,-99.99,,,-99.99,,2013-05-15 22:43:00,
2013-05-15 17:53:00,75.0,-99.9,29.88,SE,134,26.0,31.0,-999,-99.99,,,-99.99,,2013-05-15 22:53:00,
2013-05-15 18:01:00,75.0,-99.9,29.88,SE,135,27.0,31.0,-999,-99.99,,,-99.99,,2013-05-15 23:01:00,
2013-05-15 18:10:00,75.0,-99.9,29.87,SE,136,24.0,30.0,-999,-99.99,,,-99.99,,2013-05-15 23:10:00,
2013-05-15 18:18:00,75.0,-99.9,29.86,SE,136,28.0,31.0,-999,-99.99,,,-99.99,,2013-05-15 23:18:00,
2013-05-15 18:31:00,75.0,-99.9,29.87,SE,137,23.0,28.0,-999,-99.99,,,-99.99,,2013-05-15 23:31:00,
2013-05-15 18:40:00,75.0,-99.9,29.86,SE,138,26.0,30.0,-999,-99.99,,,-99.99,,2013-05-15 23:40:00,
2013-05-15 19:01:00,75.0,-99.9,29.86,SE,140,26.0,30.0,-999,-99.99,,,-99.99,,2013-05-16 00:01:00,
2013-05-15 19:37:00,75.0,-99.9,29.87,SE,138,22.0,26.0,-999,-99.99,,,-99.99,,2013-05-16 00:37:00,
2013-05-15 19:52:00,75.0,-99.9,29.87,SE,139,23.0,25.0,-999,-99.99,,,-99.99,,2013-05-16 00:52:00,
2013-05-15 19:59:00,75.0,-99.9,29.88,SE,139,21.0,26.0,-999,-99.99,,,-99.99,,2013-05-16 00:59:00,
2013-05-15 20:09:00,75.0,-99.9,29.88,SE,139,22.0,25.0,-999,-99.99,,,-99.99,,2013-05-16 01:09:00,
2013-05-15 20:19:00,75.0,-99.9,29.88,SE,140,23.0,27.0,-999,-99.99,,,-99.99,,2013-05-16 01:19:00,
2013-05-15 20:30:00,75.0,-99.9,29.88,SE,140,22.0,26.0,-999,-99.99,,,-99.99,,2013-05-16 01:30:00,
2013-05-15 20:40:00,75.0,-99.9,29.88,SE,141,25.0,28.0,-999,-99.99,,,-99.99,,2013-05-16 01:40:00,
2013-05-15 20:50:00,75.0,-99.9,29.88,SE,141,25.0,28.0,-999,-99.99,,,-99.99,,2013-05-16 01:50:00,
2013-05-15 21:02:00,75.0,-99.9,29.88,SE,140,23.0,27.0,-999,-99.99,,,-99.99,,2013-05-16 02:02:00,
2013-05-15 21:08:00,75.0,-99.9,29.88,SE,139,23.0,26.0,-999,-99.99,,,-99.99,,2013-05-16 02:08:00,
2013-05-15 21:18:00,75.0,-99.9,29.88,SE,138,23.0,27.0,-999,-99.99,,,-99.99,,2013-05-16 02:18:00,
2013-05-15 21:40:00,75.0,-99.9,29.88,SE,140,22.0,26.0,-999,-99.99,,,-99.99,,2013-05-16 02:40:00,
2013-05-15 21:49:00,75.0,-99.9,29.88,SE,140,22.0,26.0,-999,-99.99,,,-99.99,,2013-05-16 02:49:00,
2013-05-15 21:56:00,75.0,-99.9,29.88,SE,140,22.0,26.0,-999,-99.99,,,-99.99,,2013-05-16 02:56:00,
2013-05-15 22:07:00,75.0,-99.9,29.89,SE,141,20.0,25.0,-999,-99.99,,,-99.99,,2013-05-16 03:07:00,
2013-05-15 22:17:00,75.0,-99.9,29.89,SE,142,21.0,25.0,-999,-99.99,,,-99.99,,2013-05-16 03:17:00,
2013-05-15 22:28:00,75.0,-99.9,29.90,SE,146,21.0,23.0,-999,-99.99,,,-99.99,,2013-05-16 03:28:00,
2013-05-15 22:47:00,75.0,-99.9,29.89,SE,146,22.0,26.0,-999,-99.99,,,-99.99,,2013-05-16 03:47:00,
2013-05-15 23:03:00,75.0,-99.9,29.89,SSE,148,25.0,28.0,-999,-99.99,,,-99.99,,2013-05-16 04:03:00,
2013-05-15 23:12:00,75.0,-99.9,29.89,SE,146,22.0,27.0,-999,-99.99,,,-99.99,,2013-05-16 04:12:00,
2013-05-15 23:23:00,75.0,-99.9,29.90,SSE,147,22.0,23.0,-999,-99.99,,,-99.99,,2013-05-16 04:23:00,
2013-05-15 23:33:00,75.0,-99.9,29.90,SE,144,22.0,25.0,-999,-99.99,,,-99.99,,2013-05-16 04:33:00,
2013-05-15 23:43:00,75.0,-99.9,29.90,SE,145,22.0,25.0,-999,-99.99,,,-99.99,,2013-05-16 04:43:00,
2013-05-15 23:53:00,75.0,-99.9,29.89,SE,146,20.0,23.0,-999,-99.99,,,-99.99,,2013-05-16 04:53:00,